Location: Shenandoah County Park
(38.9356°N, 78.4524°W)
Time: 02:36:07
(UTC-05:00)

A-11 Canister half - Pass Details

Date: 08 December 2023
Orbit: 1526 x 1682 km, 47.3° (Epoch: 01 March)

Event Time Altitude Azimuth Distance (km) Brightness Sun altitude
Rises 22:03:02 0° 289° (WNW) 4,934 12.1 -59.3°
Reaches altitude 10° 22:06:20 10° 293° (WNW) 3,940 11.5 -59.9°
Enters shadow 22:08:34 19° 298° (WNW) 3,294 10.9 -60.3°
